Time,TemperatureF,DewpointF,PressureIn,WindDirection,WindDirectionDegrees,WindSpeedMPH,WindSpeedGustMPH,Humidity,HourlyPrecipIn,Conditions,Clouds,dailyrainin,SoftwareType,DateUTC
2013-03-30 00:00:00,45.1,31.6,0.00,South,180,0.0,0.0,59,0.00,,,0.00,WUHU216HW,2013-03-30 06:00:00,
2013-03-30 00:08:00,44.7,31.3,0.00,South,180,0.0,0.0,59,0.00,,,0.00,WUHU216HW,2013-03-30 06:08:00,
2013-03-30 00:13:00,44.6,31.1,0.00,South,180,0.0,0.0,59,0.00,,,0.00,WUHU216HW,2013-03-30 06:13:00,
2013-03-30 00:18:00,44.4,31.0,0.00,South,180,0.0,0.0,59,0.00,,,0.00,WUHU216HW,2013-03-30 06:18:00,
2013-03-30 00:23:00,44.2,31.2,0.00,South,180,0.0,0.0,60,0.00,,,0.00,WUHU216HW,2013-03-30 06:23:00,
2013-03-30 00:28:00,44.0,30.6,0.00,South,180,0.0,0.0,59,0.00,,,0.00,WUHU216HW,2013-03-30 06:28:00,
2013-03-30 00:33:00,43.8,30.9,0.00,South,180,0.0,0.0,60,0.00,,,0.00,WUHU216HW,2013-03-30 06:33:00,
2013-03-30 00:38:00,43.7,30.7,0.00,South,180,0.0,0.0,60,0.00,,,0.00,WUHU216HW,2013-03-30 06:38:00,
2013-03-30 00:43:00,43.5,30.5,0.00,South,180,0.0,0.0,60,0.00,,,0.00,WUHU216HW,2013-03-30 06:43:00,
2013-03-30 00:48:00,43.5,30.5,0.00,South,180,0.0,0.0,60,0.00,,,0.00,WUHU216HW,2013-03-30 06:48:00,
2013-03-30 00:53:00,43.3,30.3,0.00,South,180,0.0,0.0,60,0.00,,,0.00,WUHU216HW,2013-03-30 06:53:00,
2013-03-30 00:58:00,43.1,30.5,0.00,South,180,0.0,0.0,61,0.00,,,0.00,WUHU216HW,2013-03-30 06:58:00,
2013-03-30 01:13:00,43.1,30.5,0.00,South,180,0.0,0.0,61,0.00,,,0.00,WUHU216HW,2013-03-30 07:13:00,
2013-03-30 01:18:00,42.6,30.0,0.00,South,180,0.0,0.0,61,0.00,,,0.00,WUHU216HW,2013-03-30 07:18:00,
2013-03-30 01:23:00,42.6,30.0,0.00,South,180,0.0,0.0,61,0.00,,,0.00,WUHU216HW,2013-03-30 07:23:00,
2013-03-30 01:28:00,42.4,30.2,0.00,South,180,0.0,0.0,62,0.00,,,0.00,WUHU216HW,2013-03-30 07:28:00,
2013-03-30 01:33:00,42.4,30.2,0.00,South,180,0.0,0.0,62,0.00,,,0.00,WUHU216HW,2013-03-30 07:33:00,
2013-03-30 01:38:00,42.2,30.1,0.00,South,180,0.0,0.0,62,0.00,,,0.00,WUHU216HW,2013-03-30 07:38:00,
2013-03-30 01:43:00,42.0,29.9,0.00,South,180,0.0,0.0,62,0.00,,,0.00,WUHU216HW,2013-03-30 07:43:00,
2013-03-30 01:48:00,42.0,29.9,0.00,South,180,0.0,0.0,62,0.00,,,0.00,WUHU216HW,2013-03-30 07:48:00,
2013-03-30 01:53:00,42.0,29.9,0.00,South,180,0.0,0.0,62,0.00,,,0.00,WUHU216HW,2013-03-30 07:53:00,
2013-03-30 01:58:00,41.9,29.8,0.00,South,180,0.0,0.0,62,0.00,,,0.00,WUHU216HW,2013-03-30 07:58:00,
2013-03-30 02:03:00,41.9,29.8,0.00,South,180,0.0,0.0,62,0.00,,,0.00,WUHU216HW,2013-03-30 08:03:00,
2013-03-30 02:08:00,41.7,29.6,0.00,South,180,0.0,0.0,62,0.00,,,0.00,WUHU216HW,2013-03-30 08:08:00,
2013-03-30 02:13:00,41.5,29.4,0.00,South,180,0.0,0.0,62,0.00,,,0.00,WUHU216HW,2013-03-30 08:13:00,
2013-03-30 02:18:00,41.5,29.4,0.00,South,180,0.0,0.0,62,0.00,,,0.00,WUHU216HW,2013-03-30 08:18:00,
2013-03-30 02:23:00,41.3,29.3,0.00,South,180,0.0,0.0,62,0.00,,,0.00,WUHU216HW,2013-03-30 08:23:00,
2013-03-30 02:28:00,41.3,29.3,0.00,South,180,0.0,0.0,62,0.00,,,0.00,WUHU216HW,2013-03-30 08:28:00,
2013-03-30 02:33:00,41.1,29.5,0.00,South,180,0.0,0.0,63,0.00,,,0.00,WUHU216HW,2013-03-30 08:33:00,
2013-03-30 02:38:00,41.0,29.3,0.00,South,180,0.0,0.0,63,0.00,,,0.00,WUHU216HW,2013-03-30 08:38:00,
2013-03-30 02:43:00,41.0,29.3,0.00,South,180,0.0,0.0,63,0.00,,,0.00,WUHU216HW,2013-03-30 08:43:00,
2013-03-30 02:48:00,40.8,29.1,0.00,South,180,0.0,0.0,63,0.00,,,0.00,WUHU216HW,2013-03-30 08:48:00,
2013-03-30 02:53:00,40.8,29.1,0.00,South,180,0.0,0.0,63,0.00,,,0.00,WUHU216HW,2013-03-30 08:53:00,
2013-03-30 02:58:00,40.8,29.1,0.00,South,180,0.0,0.0,63,0.00,,,0.00,WUHU216HW,2013-03-30 08:58:00,
2013-03-30 03:03:00,40.8,29.1,0.00,South,180,0.0,0.0,63,0.00,,,0.00,WUHU216HW,2013-03-30 09:03:00,
2013-03-30 03:08:00,40.6,28.9,0.00,South,180,0.0,0.0,63,0.00,,,0.00,WUHU216HW,2013-03-30 09:08:00,
2013-03-30 03:13:00,40.6,28.9,0.00,South,180,0.0,0.0,63,0.00,,,0.00,WUHU216HW,2013-03-30 09:13:00,
2013-03-30 03:18:00,40.6,29.3,0.00,South,180,0.0,0.0,64,0.00,,,0.00,WUHU216HW,2013-03-30 09:18:00,
2013-03-30 03:23:00,40.4,29.1,0.00,South,180,0.0,0.0,64,0.00,,,0.00,WUHU216HW,2013-03-30 09:23:00,
2013-03-30 03:28:00,40.4,29.1,0.00,South,180,0.0,0.0,64,0.00,,,0.00,WUHU216HW,2013-03-30 09:28:00,
2013-03-30 03:33:00,40.2,29.0,0.00,South,180,0.0,0.0,64,0.00,,,0.00,WUHU216HW,2013-03-30 09:33:00,
2013-03-30 03:34:00,40.2,29.0,0.00,South,180,0.0,0.0,64,0.00,,,0.00,WUHU216HW,2013-03-30 09:34:00,
2013-03-30 03:39:00,40.2,29.0,0.00,South,180,0.0,0.0,64,0.00,,,0.00,WUHU216HW,2013-03-30 09:39:00,
2013-03-30 03:44:00,40.2,29.0,0.00,South,180,0.0,0.0,64,0.00,,,0.00,WUHU216HW,2013-03-30 09:44:00,
2013-03-30 03:49:00,40.1,28.8,0.00,South,180,0.0,0.0,64,0.00,,,0.00,WUHU216HW,2013-03-30 09:49:00,
2013-03-30 03:54:00,39.9,28.6,0.00,South,180,0.0,0.0,64,0.00,,,0.00,WUHU216HW,2013-03-30 09:54:00,
2013-03-30 03:59:00,39.9,28.6,0.00,South,180,0.0,0.0,64,0.00,,,0.00,WUHU216HW,2013-03-30 09:59:00,
2013-03-30 04:04:00,39.9,28.6,0.00,South,180,0.0,0.0,64,0.00,,,0.00,WUHU216HW,2013-03-30 10:04:00,
2013-03-30 04:09:00,39.7,28.4,0.00,South,180,0.0,0.0,64,0.00,,,0.00,WUHU216HW,2013-03-30 10:09:00,
2013-03-30 04:14:00,39.7,28.4,0.00,South,180,0.0,0.0,64,0.00,,,0.00,WUHU216HW,2013-03-30 10:14:00,
2013-03-30 04:19:00,39.5,28.6,0.00,South,180,0.0,0.0,65,0.00,,,0.00,WUHU216HW,2013-03-30 10:19:00,
2013-03-30 04:24:00,39.5,28.6,0.00,South,180,0.0,0.0,65,0.00,,,0.00,WUHU216HW,2013-03-30 10:24:00,
2013-03-30 04:29:00,39.3,28.4,0.00,South,180,0.0,0.0,65,0.00,,,0.00,WUHU216HW,2013-03-30 10:29:00,
2013-03-30 04:34:00,39.3,28.4,0.00,South,180,0.0,0.0,65,0.00,,,0.00,WUHU216HW,2013-03-30 10:34:00,
2013-03-30 04:39:00,39.2,28.3,0.00,South,180,0.0,0.0,65,0.00,,,0.00,WUHU216HW,2013-03-30 10:39:00,
2013-03-30 04:44:00,39.0,28.1,0.00,South,180,0.0,0.0,65,0.00,,,0.00,WUHU216HW,2013-03-30 10:44:00,
2013-03-30 04:49:00,39.0,28.1,0.00,South,180,0.0,0.0,65,0.00,,,0.00,WUHU216HW,2013-03-30 10:49:00,
2013-03-30 04:54:00,39.0,28.1,0.00,South,180,0.0,0.0,65,0.00,,,0.00,WUHU216HW,2013-03-30 10:54:00,
2013-03-30 04:59:00,38.8,27.9,0.00,South,180,0.0,0.0,65,0.00,,,0.00,WUHU216HW,2013-03-30 10:59:00,
2013-03-30 05:04:00,38.8,27.9,0.00,South,180,0.0,0.0,65,0.00,,,0.00,WUHU216HW,2013-03-30 11:04:00,
2013-03-30 05:09:00,38.6,27.8,0.00,South,180,0.0,0.0,65,0.00,,,0.00,WUHU216HW,2013-03-30 11:09:00,
2013-03-30 05:14:00,38.4,28.0,0.00,South,180,0.0,0.0,66,0.00,,,0.00,WUHU216HW,2013-03-30 11:14:00,
2013-03-30 05:19:00,38.4,28.0,0.00,South,180,0.0,0.0,66,0.00,,,0.00,WUHU216HW,2013-03-30 11:19:00,
2013-03-30 05:24:00,38.4,28.0,0.00,South,180,0.0,0.0,66,0.00,,,0.00,WUHU216HW,2013-03-30 11:24:00,
2013-03-30 05:29:00,38.3,27.8,0.00,South,180,0.0,0.0,66,0.00,,,0.00,WUHU216HW,2013-03-30 11:29:00,
2013-03-30 05:34:00,38.1,27.7,0.00,South,180,0.0,0.0,66,0.00,,,0.00,WUHU216HW,2013-03-30 11:34:00,
2013-03-30 05:39:00,38.1,27.7,0.00,South,180,0.0,0.0,66,0.00,,,0.00,WUHU216HW,2013-03-30 11:39:00,
2013-03-30 05:44:00,37.9,27.5,0.00,South,180,0.0,0.0,66,0.00,,,0.00,WUHU216HW,2013-03-30 11:44:00,
2013-03-30 05:49:00,37.9,27.5,0.00,South,180,0.0,0.0,66,0.00,,,0.00,WUHU216HW,2013-03-30 11:49:00,
2013-03-30 05:54:00,37.9,27.5,0.00,South,180,0.0,0.0,66,0.00,,,0.00,WUHU216HW,2013-03-30 11:54:00,
2013-03-30 05:59:00,37.7,27.3,0.00,South,180,0.0,0.0,66,0.00,,,0.00,WUHU216HW,2013-03-30 11:59:00,
2013-03-30 06:04:00,37.5,27.2,0.00,South,180,0.0,0.0,66,0.00,,,0.00,WUHU216HW,2013-03-30 12:04:00,
2013-03-30 06:09:00,37.5,27.2,0.00,South,180,0.0,0.0,66,0.00,,,0.00,WUHU216HW,2013-03-30 12:09:00,
2013-03-30 06:14:00,37.4,26.8,0.00,South,180,0.0,0.0,66,0.00,,,0.00,WUHU216HW,2013-03-30 12:14:00,
2013-03-30 06:19:00,37.2,26.8,0.00,South,180,0.0,0.0,66,0.00,,,0.00,WUHU216HW,2013-03-30 12:19:00,
2013-03-30 06:24:00,37.2,26.8,0.00,South,180,0.0,0.0,66,0.00,,,0.00,WUHU216HW,2013-03-30 12:24:00,
2013-03-30 06:29:00,37.2,26.8,0.00,South,180,0.0,0.0,66,0.00,,,0.00,WUHU216HW,2013-03-30 12:29:00,
2013-03-30 06:34:00,37.0,26.7,0.00,South,180,0.0,0.0,66,0.00,,,0.00,WUHU216HW,2013-03-30 12:34:00,
2013-03-30 06:39:00,37.0,26.7,0.00,South,180,0.0,0.0,66,0.00,,,0.00,WUHU216HW,2013-03-30 12:39:00,
2013-03-30 06:44:00,36.8,26.9,0.00,South,180,0.0,0.0,67,0.00,,,0.00,WUHU216HW,2013-03-30 12:44:00,
2013-03-30 06:49:00,36.8,26.9,0.00,South,180,0.0,0.0,67,0.00,,,0.00,WUHU216HW,2013-03-30 12:49:00,
2013-03-30 06:54:00,36.6,26.7,0.00,South,180,0.0,0.0,67,0.00,,,0.00,WUHU216HW,2013-03-30 12:54:00,
2013-03-30 06:59:00,36.6,26.7,0.00,South,180,0.0,0.0,67,0.00,,,0.00,WUHU216HW,2013-03-30 12:59:00,
2013-03-30 07:04:00,36.6,26.7,0.00,South,180,0.0,0.0,67,0.00,,,0.00,WUHU216HW,2013-03-30 13:04:00,
2013-03-30 07:09:00,36.6,26.7,0.00,South,180,0.0,0.0,67,0.00,,,0.00,WUHU216HW,2013-03-30 13:09:00,
2013-03-30 07:14:00,36.6,26.7,0.00,South,180,0.0,0.0,67,0.00,,,0.00,WUHU216HW,2013-03-30 13:14:00,
2013-03-30 07:19:00,36.6,26.7,0.00,South,180,0.0,0.0,67,0.00,,,0.00,WUHU216HW,2013-03-30 13:19:00,
2013-03-30 07:24:00,36.5,26.5,0.00,South,180,0.0,0.0,67,0.00,,,0.00,WUHU216HW,2013-03-30 13:24:00,
2013-03-30 07:29:00,36.5,26.5,0.00,South,180,0.0,0.0,67,0.00,,,0.00,WUHU216HW,2013-03-30 13:29:00,
2013-03-30 07:34:00,36.3,26.3,0.00,South,180,0.0,0.0,67,0.00,,,0.00,WUHU216HW,2013-03-30 13:34:00,
2013-03-30 07:39:00,36.3,26.7,0.00,South,180,0.0,0.0,68,0.00,,,0.00,WUHU216HW,2013-03-30 13:39:00,
2013-03-30 07:44:00,36.1,26.2,0.00,South,180,0.0,0.0,67,0.00,,,0.00,WUHU216HW,2013-03-30 13:44:00,
2013-03-30 07:49:00,36.1,26.2,0.00,South,180,0.0,0.0,67,0.00,,,0.00,WUHU216HW,2013-03-30 13:49:00,
2013-03-30 07:54:00,36.1,26.2,0.00,South,180,0.0,0.0,67,0.00,,,0.00,WUHU216HW,2013-03-30 13:54:00,
2013-03-30 07:59:00,35.9,26.0,0.00,South,180,0.0,0.0,67,0.00,,,0.00,WUHU216HW,2013-03-30 13:59:00,
2013-03-30 08:04:00,35.9,26.0,0.00,South,180,0.0,0.0,67,0.00,,,0.00,WUHU216HW,2013-03-30 14:04:00,
2013-03-30 08:09:00,35.7,26.2,0.00,South,180,0.0,0.0,68,0.00,,,0.00,WUHU216HW,2013-03-30 14:09:00,
2013-03-30 08:14:00,35.7,26.2,0.00,South,180,0.0,0.0,68,0.00,,,0.00,WUHU216HW,2013-03-30 14:14:00,
2013-03-30 08:19:00,35.7,26.2,0.00,South,180,0.0,0.0,68,0.00,,,0.00,WUHU216HW,2013-03-30 14:19:00,
2013-03-30 08:24:00,35.7,26.2,0.00,South,180,0.0,0.0,68,0.00,,,0.00,WUHU216HW,2013-03-30 14:24:00,
2013-03-30 08:29:00,35.7,26.2,0.00,South,180,0.0,0.0,68,0.00,,,0.00,WUHU216HW,2013-03-30 14:29:00,
2013-03-30 08:34:00,35.7,26.2,0.00,South,180,0.0,0.0,68,0.00,,,0.00,WUHU216HW,2013-03-30 14:34:00,
2013-03-30 08:39:00,35.7,26.2,0.00,South,180,0.0,0.0,68,0.00,,,0.00,WUHU216HW,2013-03-30 14:39:00,
2013-03-30 08:44:00,35.7,26.2,0.00,South,180,0.0,0.0,68,0.00,,,0.00,WUHU216HW,2013-03-30 14:44:00,
2013-03-30 08:49:00,35.9,26.4,0.00,South,180,0.0,0.0,68,0.00,,,0.00,WUHU216HW,2013-03-30 14:49:00,
2013-03-30 08:54:00,36.1,26.9,0.00,South,180,0.0,0.0,69,0.00,,,0.00,WUHU216HW,2013-03-30 14:54:00,
2013-03-30 08:59:00,36.3,27.1,0.00,South,180,0.0,0.0,69,0.00,,,0.00,WUHU216HW,2013-03-30 14:59:00,
2013-03-30 09:04:00,36.5,27.3,0.00,South,180,0.0,0.0,69,0.00,,,0.00,WUHU216HW,2013-03-30 15:04:00,
2013-03-30 09:09:00,36.6,27.4,0.00,South,180,0.0,0.0,69,0.00,,,0.00,WUHU216HW,2013-03-30 15:09:00,
2013-03-30 09:14:00,37.0,27.8,0.00,South,180,0.0,0.0,69,0.00,,,0.00,WUHU216HW,2013-03-30 15:14:00,
2013-03-30 09:19:00,37.2,28.4,0.00,South,180,0.0,0.0,70,0.00,,,0.00,WUHU216HW,2013-03-30 15:19:00,
2013-03-30 09:24:00,37.2,28.4,0.00,South,180,0.0,0.0,70,0.00,,,0.00,WUHU216HW,2013-03-30 15:24:00,
2013-03-30 09:29:00,37.5,28.7,0.00,South,180,0.0,0.0,70,0.00,,,0.00,WUHU216HW,2013-03-30 15:29:00,
2013-03-30 09:34:00,37.7,28.9,0.00,South,180,0.0,0.0,70,0.00,,,0.00,WUHU216HW,2013-03-30 15:34:00,
2013-03-30 09:39:00,37.9,29.0,0.00,South,180,0.0,0.0,70,0.00,,,0.00,WUHU216HW,2013-03-30 15:39:00,
2013-03-30 09:44:00,38.3,29.3,0.00,South,180,0.0,0.0,70,0.00,,,0.00,WUHU216HW,2013-03-30 15:44:00,
2013-03-30 09:49:00,38.4,29.8,0.00,South,180,0.0,0.0,71,0.00,,,0.00,WUHU216HW,2013-03-30 15:49:00,
2013-03-30 09:54:00,38.8,30.2,0.00,SSE,158,0.0,0.0,71,0.00,,,0.00,WUHU216HW,2013-03-30 15:54:00,
2013-03-30 09:59:00,39.0,30.3,0.00,SSE,158,0.0,0.0,71,0.00,,,0.00,WUHU216HW,2013-03-30 15:59:00,
2013-03-30 10:04:00,39.3,30.7,0.00,SSE,158,0.0,0.0,71,0.00,,,0.00,WUHU216HW,2013-03-30 16:04:00,
2013-03-30 10:09:00,39.3,30.7,0.00,SSE,158,0.0,0.0,71,0.00,,,0.00,WUHU216HW,2013-03-30 16:09:00,
2013-03-30 10:14:00,39.9,31.2,0.00,SSE,158,0.0,0.0,71,0.00,,,0.00,WUHU216HW,2013-03-30 16:14:00,
2013-03-30 10:19:00,40.1,31.4,0.00,SSE,158,0.0,0.0,71,0.00,,,0.00,WUHU216HW,2013-03-30 16:19:00,
2013-03-30 10:24:00,40.4,31.7,0.00,SSE,158,0.0,0.0,71,0.00,,,0.00,WUHU216HW,2013-03-30 16:24:00,
2013-03-30 10:29:00,40.8,32.1,0.00,SSE,158,0.0,0.0,71,0.00,,,0.00,WUHU216HW,2013-03-30 16:29:00,
2013-03-30 10:34:00,41.1,32.5,0.00,SE,135,0.0,0.0,71,0.00,,,0.00,WUHU216HW,2013-03-30 16:34:00,
2013-03-30 10:39:00,41.5,32.8,0.00,SE,135,0.0,0.0,71,0.00,,,0.00,WUHU216HW,2013-03-30 16:39:00,
2013-03-30 10:44:00,41.9,33.2,0.00,SE,135,0.0,0.0,71,0.00,,,0.00,WUHU216HW,2013-03-30 16:44:00,
2013-03-30 10:49:00,42.4,33.7,0.00,SE,135,0.0,0.0,71,0.00,,,0.00,WUHU216HW,2013-03-30 16:49:00,
2013-03-30 10:54:00,42.6,33.9,0.00,East,90,0.0,0.0,71,0.00,,,0.00,WUHU216HW,2013-03-30 16:54:00,
2013-03-30 10:59:00,43.1,34.1,0.00,East,90,0.0,0.0,70,0.00,,,0.00,WUHU216HW,2013-03-30 16:59:00,
2013-03-30 11:04:00,43.5,34.4,0.00,NE,45,0.0,0.0,70,0.00,,,0.00,WUHU216HW,2013-03-30 17:04:00,
2013-03-30 11:09:00,43.8,34.7,0.00,NE,45,0.0,0.0,70,0.00,,,0.00,WUHU216HW,2013-03-30 17:09:00,
2013-03-30 11:14:00,44.2,34.7,0.00,NE,45,0.0,0.0,69,0.00,,,0.00,WUHU216HW,2013-03-30 17:14:00,
2013-03-30 11:19:00,44.9,35.3,0.00,East,90,0.0,0.0,69,0.00,,,0.00,WUHU216HW,2013-03-30 17:19:00,
2013-03-30 11:24:00,45.1,35.1,0.00,East,90,0.0,0.0,68,0.00,,,0.00,WUHU216HW,2013-03-30 17:24:00,
2013-03-30 11:29:00,46.0,36.0,0.00,East,90,0.0,0.0,68,0.00,,,0.00,WUHU216HW,2013-03-30 17:29:00,
2013-03-30 11:34:00,46.5,36.5,0.00,East,90,0.0,0.0,68,0.00,,,0.00,WUHU216HW,2013-03-30 17:34:00,
2013-03-30 11:39:00,46.9,36.5,0.00,East,90,0.0,0.0,67,0.00,,,0.00,WUHU216HW,2013-03-30 17:39:00,
2013-03-30 11:44:00,47.8,37.3,0.00,East,90,0.0,0.0,67,0.00,,,0.00,WUHU216HW,2013-03-30 17:44:00,
2013-03-30 11:49:00,48.3,37.4,0.00,East,90,0.0,0.0,66,0.00,,,0.00,WUHU216HW,2013-03-30 17:49:00,
2013-03-30 11:54:00,48.9,37.6,0.00,ENE,68,0.0,0.0,65,0.00,,,0.00,WUHU216HW,2013-03-30 17:54:00,
2013-03-30 11:59:00,49.8,38.4,0.00,ENE,68,0.0,0.0,65,0.00,,,0.00,WUHU216HW,2013-03-30 17:59:00,
2013-03-30 12:04:00,50.3,38.5,0.00,East,90,0.0,0.0,64,0.00,,,0.00,WUHU216HW,2013-03-30 18:04:00,
2013-03-30 12:09:00,51.0,39.2,0.00,East,90,0.0,0.0,64,0.00,,,0.00,WUHU216HW,2013-03-30 18:09:00,
2013-03-30 12:14:00,51.8,39.5,0.00,ESE,113,0.0,0.0,63,0.00,,,0.00,WUHU216HW,2013-03-30 18:14:00,
2013-03-30 12:19:00,52.3,39.6,0.00,ESE,113,0.0,0.0,62,0.00,,,0.00,WUHU216HW,2013-03-30 18:19:00,
2013-03-30 12:24:00,52.8,39.7,0.00,ESE,113,0.0,0.0,61,0.00,,,0.00,WUHU216HW,2013-03-30 18:24:00,
2013-03-30 12:29:00,53.7,40.2,0.00,ESE,113,0.0,0.0,60,0.00,,,0.00,WUHU216HW,2013-03-30 18:29:00,
2013-03-30 12:34:00,53.9,39.9,0.00,ESE,113,0.0,0.0,59,0.00,,,0.00,WUHU216HW,2013-03-30 18:34:00,
2013-03-30 12:39:00,54.8,40.7,0.00,ESE,113,0.0,0.0,59,0.00,,,0.00,WUHU216HW,2013-03-30 18:39:00,
2013-03-30 12:44:00,55.7,41.1,0.00,ESE,113,0.0,0.0,58,0.00,,,0.00,WUHU216HW,2013-03-30 18:44:00,
2013-03-30 12:49:00,56.3,41.2,0.00,ESE,113,0.0,0.0,57,0.00,,,0.00,WUHU216HW,2013-03-30 18:49:00,
2013-03-30 12:54:00,56.8,40.8,0.00,ESE,113,0.0,0.0,55,0.00,,,0.00,WUHU216HW,2013-03-30 18:54:00,
2013-03-30 12:59:00,57.7,41.1,0.00,ESE,113,0.0,0.0,54,0.00,,,0.00,WUHU216HW,2013-03-30 18:59:00,
2013-03-30 13:04:00,58.2,41.2,0.00,ESE,113,0.0,0.0,53,0.00,,,0.00,WUHU216HW,2013-03-30 19:04:00,
2013-03-30 13:09:00,58.8,40.2,0.00,ESE,113,0.0,0.0,50,0.00,,,0.00,WUHU216HW,2013-03-30 19:09:00,
2013-03-30 13:14:00,59.5,40.9,0.00,ESE,113,0.0,0.0,50,0.00,,,0.00,WUHU216HW,2013-03-30 19:14:00,
2013-03-30 13:19:00,59.9,40.1,0.00,East,90,0.0,0.0,48,0.00,,,0.00,WUHU216HW,2013-03-30 19:19:00,
2013-03-30 13:24:00,60.4,39.4,0.00,East,90,0.0,0.0,46,0.00,,,0.00,WUHU216HW,2013-03-30 19:24:00,
2013-03-30 13:29:00,60.9,39.9,0.00,ESE,113,0.0,0.0,46,0.00,,,0.00,WUHU216HW,2013-03-30 19:29:00,
2013-03-30 13:34:00,61.3,40.2,0.00,ESE,113,0.0,0.0,46,0.00,,,0.00,WUHU216HW,2013-03-30 19:34:00,
2013-03-30 13:39:00,61.8,40.1,0.00,ESE,113,0.0,0.0,45,0.00,,,0.00,WUHU216HW,2013-03-30 19:39:00,
2013-03-30 13:44:00,62.4,39.5,0.00,East,90,0.0,0.0,43,0.00,,,0.00,WUHU216HW,2013-03-30 19:44:00,
2013-03-30 13:49:00,63.1,40.7,0.00,East,90,0.0,0.0,44,0.00,,,0.00,WUHU216HW,2013-03-30 19:49:00,
2013-03-30 13:54:00,63.5,41.0,0.00,East,90,0.0,0.0,44,0.00,,,0.00,WUHU216HW,2013-03-30 19:54:00,
2013-03-30 13:59:00,64.2,42.2,0.00,ESE,113,0.0,0.0,45,0.00,,,0.00,WUHU216HW,2013-03-30 19:59:00,
2013-03-30 14:04:00,64.7,42.7,0.00,ESE,113,0.0,0.0,45,0.00,,,0.00,WUHU216HW,2013-03-30 20:04:00,
2013-03-30 14:09:00,65.3,42.7,0.00,SSE,158,0.0,0.0,44,0.00,,,0.00,WUHU216HW,2013-03-30 20:09:00,
2013-03-30 14:14:00,66.0,43.3,0.00,SSE,158,0.0,0.0,44,0.00,,,0.00,WUHU216HW,2013-03-30 20:14:00,
2013-03-30 14:19:00,66.3,42.5,0.00,SE,135,0.0,0.0,42,0.00,,,0.00,WUHU216HW,2013-03-30 20:19:00,
2013-03-30 14:24:00,66.7,42.2,0.00,East,90,0.0,0.0,41,0.00,,,0.00,WUHU216HW,2013-03-30 20:24:00,
2013-03-30 14:29:00,66.9,41.8,0.00,East,90,0.0,0.0,40,0.00,,,0.00,WUHU216HW,2013-03-30 20:29:00,
2013-03-30 14:34:00,66.9,41.8,0.00,East,90,0.0,0.0,40,0.00,,,0.00,WUHU216HW,2013-03-30 20:34:00,
2013-03-30 14:39:00,67.1,41.2,0.00,East,90,0.0,0.0,39,0.00,,,0.00,WUHU216HW,2013-03-30 20:39:00,
2013-03-30 14:44:00,67.4,41.5,0.00,ENE,68,0.0,0.0,39,0.00,,,0.00,WUHU216HW,2013-03-30 20:44:00,
2013-03-30 14:49:00,67.6,41.7,0.00,ENE,68,0.0,0.0,39,0.00,,,0.00,WUHU216HW,2013-03-30 20:49:00,
2013-03-30 14:54:00,67.8,41.1,0.00,ENE,68,0.0,0.0,38,0.00,,,0.00,WUHU216HW,2013-03-30 20:54:00,
2013-03-30 14:59:00,68.1,41.4,0.00,ENE,68,0.0,0.0,38,0.00,,,0.00,WUHU216HW,2013-03-30 20:59:00,
2013-03-30 15:04:00,68.3,40.9,0.00,ENE,68,0.0,0.0,37,0.00,,,0.00,WUHU216HW,2013-03-30 21:04:00,
2013-03-30 15:09:00,68.5,41.0,0.00,ENE,68,0.0,0.0,37,0.00,,,0.00,WUHU216HW,2013-03-30 21:09:00,
2013-03-30 15:14:00,68.7,41.2,0.00,NE,45,0.0,0.0,37,0.00,,,0.00,WUHU216HW,2013-03-30 21:14:00,
2013-03-30 15:19:00,68.9,40.6,0.00,NE,45,0.0,0.0,36,0.00,,,0.00,WUHU216HW,2013-03-30 21:19:00,
2013-03-30 15:24:00,69.0,41.5,0.00,NNE,23,0.0,0.0,37,0.00,,,0.00,WUHU216HW,2013-03-30 21:24:00,
2013-03-30 15:29:00,69.4,41.8,0.00,NNE,23,0.0,0.0,37,0.00,,,0.00,WUHU216HW,2013-03-30 21:29:00,
2013-03-30 15:34:00,69.6,41.3,0.00,SE,135,0.0,0.0,36,0.00,,,0.00,WUHU216HW,2013-03-30 21:34:00,
2013-03-30 15:39:00,69.8,42.2,0.00,NW,315,0.0,0.0,37,0.00,,,0.00,WUHU216HW,2013-03-30 21:39:00,
2013-03-30 15:44:00,69.9,42.3,0.00,ENE,68,0.0,0.0,37,0.00,,,0.00,WUHU216HW,2013-03-30 21:44:00,
2013-03-30 15:49:00,70.3,42.6,0.00,SSE,158,0.0,0.0,37,0.00,,,0.00,WUHU216HW,2013-03-30 21:49:00,
2013-03-30 15:54:00,70.5,42.8,0.00,SSE,158,0.0,0.0,37,0.00,,,0.00,WUHU216HW,2013-03-30 21:54:00,
2013-03-30 15:59:00,70.7,43.0,0.00,SW,225,0.0,0.0,37,0.00,,,0.00,WUHU216HW,2013-03-30 21:59:00,
2013-03-30 16:04:00,70.8,42.4,0.00,WSW,248,0.0,0.0,36,0.00,,,0.00,WUHU216HW,2013-03-30 22:04:00,
2013-03-30 16:09:00,70.8,42.4,0.00,East,90,0.0,0.0,36,0.00,,,0.00,WUHU216HW,2013-03-30 22:09:00,
2013-03-30 16:14:00,70.8,42.4,0.00,WSW,248,0.0,0.0,36,0.00,,,0.00,WUHU216HW,2013-03-30 22:14:00,
2013-03-30 16:19:00,71.0,42.6,0.00,WSW,248,0.0,0.0,36,0.00,,,0.00,WUHU216HW,2013-03-30 22:19:00,
2013-03-30 16:24:00,71.2,42.7,0.00,WSW,248,0.0,0.0,36,0.00,,,0.00,WUHU216HW,2013-03-30 22:24:00,
2013-03-30 16:29:00,71.0,42.6,0.00,WSW,248,0.0,0.0,36,0.00,,,0.00,WUHU216HW,2013-03-30 22:29:00,
2013-03-30 16:34:00,70.8,42.4,0.00,ENE,68,0.0,0.0,36,0.00,,,0.00,WUHU216HW,2013-03-30 22:34:00,
2013-03-30 16:39:00,70.8,42.4,0.00,WSW,248,0.0,0.0,36,0.00,,,0.00,WUHU216HW,2013-03-30 22:39:00,
2013-03-30 16:44:00,70.7,42.2,0.00,ENE,68,0.0,0.0,36,0.00,,,0.00,WUHU216HW,2013-03-30 22:44:00,
2013-03-30 16:49:00,70.5,42.1,0.00,ENE,68,0.0,0.0,36,0.00,,,0.00,WUHU216HW,2013-03-30 22:49:00,
2013-03-30 16:54:00,70.3,41.2,0.00,WSW,248,0.0,0.0,35,0.00,,,0.00,WUHU216HW,2013-03-30 22:54:00,
2013-03-30 16:59:00,70.1,41.7,0.00,WSW,248,0.0,0.0,36,0.00,,,0.00,WUHU216HW,2013-03-30 22:59:00,
2013-03-30 17:04:00,69.9,41.6,0.00,WSW,248,0.0,0.0,36,0.00,,,0.00,WUHU216HW,2013-03-30 23:04:00,
2013-03-30 17:09:00,69.8,41.6,0.00,WSW,248,0.0,0.0,36,0.00,,,0.00,WUHU216HW,2013-03-30 23:09:00,
2013-03-30 17:14:00,69.6,41.3,0.00,WSW,248,0.0,0.0,36,0.00,,,0.00,WUHU216HW,2013-03-30 23:14:00,
2013-03-30 17:19:00,69.4,41.1,0.00,WSW,248,0.0,0.0,36,0.00,,,0.00,WUHU216HW,2013-03-30 23:19:00,
2013-03-30 17:24:00,69.4,41.8,0.00,WSW,248,0.0,0.0,37,0.00,,,0.00,WUHU216HW,2013-03-30 23:24:00,
2013-03-30 17:29:00,69.0,41.5,0.00,WSW,248,0.0,0.0,37,0.00,,,0.00,WUHU216HW,2013-03-30 23:29:00,
2013-03-30 17:34:00,68.9,40.6,0.00,WSW,248,0.0,0.0,36,0.00,,,0.00,WUHU216HW,2013-03-30 23:34:00,
2013-03-30 17:39:00,68.5,40.3,0.00,SW,225,0.0,0.0,36,0.00,,,0.00,WUHU216HW,2013-03-30 23:39:00,
2013-03-30 17:44:00,68.1,40.7,0.00,South,180,0.0,0.0,37,0.00,,,0.00,WUHU216HW,2013-03-30 23:44:00,
2013-03-30 17:49:00,67.8,40.4,0.00,WSW,248,0.0,0.0,37,0.00,,,0.00,WUHU216HW,2013-03-30 23:49:00,
2013-03-30 17:54:00,67.8,40.4,0.00,WSW,248,0.0,0.0,37,0.00,,,0.00,WUHU216HW,2013-03-30 23:54:00,
2013-03-30 17:59:00,67.4,40.1,0.00,WSW,248,0.0,0.0,37,0.00,,,0.00,WUHU216HW,2013-03-30 23:59:00,
2013-03-30 18:04:00,67.1,39.7,0.00,WSW,248,0.0,0.0,37,0.00,,,0.00,WUHU216HW,2013-03-31 00:04:00,
2013-03-30 18:09:00,66.7,39.4,0.00,SSW,203,0.0,0.0,37,0.00,,,0.00,WUHU216HW,2013-03-31 00:09:00,
2013-03-30 18:14:00,66.5,39.3,0.00,SSW,203,0.0,0.0,37,0.00,,,0.00,WUHU216HW,2013-03-31 00:14:00,
2013-03-30 18:19:00,66.3,39.1,0.00,SSW,203,0.0,0.0,37,0.00,,,0.00,WUHU216HW,2013-03-31 00:19:00,
2013-03-30 18:24:00,66.0,38.8,0.00,SSW,203,0.0,0.0,37,0.00,,,0.00,WUHU216HW,2013-03-31 00:24:00,
2013-03-30 18:29:00,65.8,38.6,0.00,SSW,203,0.0,0.0,37,0.00,,,0.00,WUHU216HW,2013-03-31 00:29:00,
2013-03-30 18:34:00,65.4,38.3,0.00,WSW,248,0.0,0.0,37,0.00,,,0.00,WUHU216HW,2013-03-31 00:34:00,
2013-03-30 18:39:00,65.1,38.0,0.00,WSW,248,0.0,0.0,37,0.00,,,0.00,WUHU216HW,2013-03-31 00:39:00,
2013-03-30 18:44:00,64.7,37.7,0.00,WSW,248,0.0,0.0,37,0.00,,,0.00,WUHU216HW,2013-03-31 00:44:00,
2013-03-30 18:49:00,64.5,38.2,0.00,WSW,248,0.0,0.0,38,0.00,,,0.00,WUHU216HW,2013-03-31 00:49:00,
2013-03-30 18:54:00,64.2,37.9,0.00,WSW,248,0.0,0.0,38,0.00,,,0.00,WUHU216HW,2013-03-31 00:54:00,
2013-03-30 18:59:00,63.8,37.6,0.00,WSW,248,0.0,0.0,38,0.00,,,0.00,WUHU216HW,2013-03-31 00:59:00,
2013-03-30 19:04:00,63.6,38.1,0.00,WSW,248,0.0,0.0,39,0.00,,,0.00,WUHU216HW,2013-03-31 01:04:00,
2013-03-30 19:09:00,63.1,37.7,0.00,WSW,248,0.0,0.0,39,0.00,,,0.00,WUHU216HW,2013-03-31 01:09:00,
2013-03-30 19:14:00,62.9,37.5,0.00,WSW,248,0.0,0.0,39,0.00,,,0.00,WUHU216HW,2013-03-31 01:14:00,
2013-03-30 19:19:00,62.6,37.2,0.00,WSW,248,0.0,0.0,39,0.00,,,0.00,WUHU216HW,2013-03-31 01:19:00,
2013-03-30 19:24:00,62.4,37.6,0.00,WSW,248,0.0,0.0,40,0.00,,,0.00,WUHU216HW,2013-03-31 01:24:00,
2013-03-30 19:29:00,61.8,37.2,0.00,WSW,248,0.0,0.0,40,0.00,,,0.00,WUHU216HW,2013-03-31 01:29:00,
2013-03-30 19:34:00,61.5,36.9,0.00,WSW,248,0.0,0.0,40,0.00,,,0.00,WUHU216HW,2013-03-31 01:34:00,
2013-03-30 19:39:00,61.1,36.6,0.00,WSW,248,0.0,0.0,40,0.00,,,0.00,WUHU216HW,2013-03-31 01:39:00,
2013-03-30 19:44:00,60.8,36.3,0.00,WSW,248,0.0,0.0,40,0.00,,,0.00,WUHU216HW,2013-03-31 01:44:00,
2013-03-30 19:49:00,60.4,36.5,0.00,WSW,248,0.0,0.0,41,0.00,,,0.00,WUHU216HW,2013-03-31 01:49:00,
2013-03-30 19:54:00,59.9,36.0,0.00,WSW,248,0.0,0.0,41,0.00,,,0.00,WUHU216HW,2013-03-31 01:54:00,
2013-03-30 19:59:00,59.5,35.7,0.00,WSW,248,0.0,0.0,41,0.00,,,0.00,WUHU216HW,2013-03-31 01:59:00,
2013-03-30 20:04:00,59.1,35.4,0.00,WSW,248,0.0,0.0,41,0.00,,,0.00,WUHU216HW,2013-03-31 02:04:00,
2013-03-30 20:09:00,58.8,35.6,0.00,WSW,248,0.0,0.0,42,0.00,,,0.00,WUHU216HW,2013-03-31 02:09:00,
2013-03-30 20:15:00,58.6,35.5,0.00,WSW,248,0.0,0.0,42,0.00,,,0.00,WUHU216HW,2013-03-31 02:15:00,
2013-03-30 20:20:00,57.9,35.4,0.00,West,270,0.0,0.0,43,0.00,,,0.00,WUHU216HW,2013-03-31 02:20:00,
2013-03-30 20:25:00,57.5,35.1,0.00,West,270,0.0,0.0,43,0.00,,,0.00,WUHU216HW,2013-03-31 02:25:00,
2013-03-30 20:30:00,57.3,34.9,0.00,NNW,338,0.0,0.0,43,0.00,,,0.00,WUHU216HW,2013-03-31 02:30:00,
2013-03-30 20:35:00,56.8,34.4,0.00,NW,315,0.0,0.0,43,0.00,,,0.00,WUHU216HW,2013-03-31 02:35:00,
2013-03-30 20:40:00,56.4,34.1,0.00,WSW,248,0.0,0.0,43,0.00,,,0.00,WUHU216HW,2013-03-31 02:40:00,
2013-03-30 20:45:00,56.3,33.9,0.00,WSW,248,0.0,0.0,43,0.00,,,0.00,WUHU216HW,2013-03-31 02:45:00,
2013-03-30 20:50:00,55.9,34.1,0.00,WSW,248,0.0,0.0,44,0.00,,,0.00,WUHU216HW,2013-03-31 02:50:00,
2013-03-30 20:55:00,55.7,34.0,0.00,WSW,248,0.0,0.0,44,0.00,,,0.00,WUHU216HW,2013-03-31 02:55:00,
2013-03-30 21:00:00,55.5,33.6,0.00,WSW,248,0.0,0.0,44,0.00,,,0.00,WUHU216HW,2013-03-31 03:00:00,
2013-03-30 21:05:00,55.0,33.3,0.00,WSW,248,0.0,0.0,44,0.00,,,0.00,WUHU216HW,2013-03-31 03:05:00,
2013-03-30 21:10:00,54.6,33.6,0.00,WSW,248,0.0,0.0,45,0.00,,,0.00,WUHU216HW,2013-03-31 03:10:00,
2013-03-30 21:15:00,54.3,33.2,0.00,WSW,248,0.0,0.0,45,0.00,,,0.00,WUHU216HW,2013-03-31 03:15:00,
2013-03-30 21:20:00,53.9,32.9,0.00,WSW,248,0.0,0.0,45,0.00,,,0.00,WUHU216HW,2013-03-31 03:20:00,
2013-03-30 21:25:00,53.7,32.7,0.00,WSW,248,0.0,0.0,45,0.00,,,0.00,WUHU216HW,2013-03-31 03:25:00,
2013-03-30 21:30:00,53.4,32.4,0.00,WSW,248,0.0,0.0,45,0.00,,,0.00,WUHU216HW,2013-03-31 03:30:00,
2013-03-30 21:35:00,52.8,32.5,0.00,WSW,248,0.0,0.0,46,0.00,,,0.00,WUHU216HW,2013-03-31 03:35:00,
2013-03-30 21:40:00,52.7,32.3,0.00,WSW,248,0.0,0.0,46,0.00,,,0.00,WUHU216HW,2013-03-31 03:40:00,
2013-03-30 21:45:00,52.3,32.0,0.00,WSW,248,0.0,0.0,46,0.00,,,0.00,WUHU216HW,2013-03-31 03:45:00,
2013-03-30 21:50:00,51.9,31.7,0.00,WSW,248,0.0,0.0,46,0.00,,,0.00,WUHU216HW,2013-03-31 03:50:00,
2013-03-30 21:55:00,51.6,31.4,0.00,WSW,248,0.0,0.0,46,0.00,,,0.00,WUHU216HW,2013-03-31 03:55:00,
2013-03-30 22:00:00,51.4,31.8,0.00,WSW,248,0.0,0.0,47,0.00,,,0.00,WUHU216HW,2013-03-31 04:00:00,
2013-03-30 22:05:00,51.0,31.4,0.00,WSW,248,0.0,0.0,47,0.00,,,0.00,WUHU216HW,2013-03-31 04:05:00,
2013-03-30 22:10:00,50.7,31.1,0.00,WSW,248,0.0,0.0,47,0.00,,,0.00,WUHU216HW,2013-03-31 04:10:00,
2013-03-30 22:15:00,50.5,30.9,0.00,WSW,248,0.0,0.0,47,0.00,,,0.00,WUHU216HW,2013-03-31 04:15:00,
2013-03-30 22:20:00,50.1,31.2,0.00,WSW,248,0.0,0.0,48,0.00,,,0.00,WUHU216HW,2013-03-31 04:20:00,
2013-03-30 22:25:00,49.8,30.8,0.00,WSW,248,0.0,0.0,48,0.00,,,0.00,WUHU216HW,2013-03-31 04:25:00,
2013-03-30 22:30:00,49.6,30.7,0.00,WSW,248,0.0,0.0,48,0.00,,,0.00,WUHU216HW,2013-03-31 04:30:00,
2013-03-30 22:35:00,49.2,30.3,0.00,WSW,248,0.0,0.0,48,0.00,,,0.00,WUHU216HW,2013-03-31 04:35:00,
2013-03-30 22:40:00,49.1,30.7,0.00,WSW,248,0.0,0.0,49,0.00,,,0.00,WUHU216HW,2013-03-31 04:40:00,
2013-03-30 22:45:00,48.7,30.3,0.00,WSW,248,0.0,0.0,49,0.00,,,0.00,WUHU216HW,2013-03-31 04:45:00,
2013-03-30 22:50:00,48.3,30.0,0.00,WSW,248,0.0,0.0,49,0.00,,,0.00,WUHU216HW,2013-03-31 04:50:00,
2013-03-30 22:55:00,48.2,29.8,0.00,WSW,248,0.0,0.0,49,0.00,,,0.00,WUHU216HW,2013-03-31 04:55:00,
2013-03-30 23:00:00,48.0,29.6,0.00,WSW,248,0.0,0.0,49,0.00,,,0.00,WUHU216HW,2013-03-31 05:00:00,
2013-03-30 23:05:00,47.6,29.3,0.00,WSW,248,0.0,0.0,49,0.00,,,0.00,WUHU216HW,2013-03-31 05:05:00,
2013-03-30 23:10:00,47.4,29.1,0.00,WSW,248,0.0,0.0,49,0.00,,,0.00,WUHU216HW,2013-03-31 05:10:00,
2013-03-30 23:15:00,47.1,29.4,0.00,WSW,248,0.0,0.0,50,0.00,,,0.00,WUHU216HW,2013-03-31 05:15:00,
2013-03-30 23:20:00,46.9,29.2,0.00,WSW,248,0.0,0.0,50,0.00,,,0.00,WUHU216HW,2013-03-31 05:20:00,
2013-03-30 23:25:00,46.7,29.0,0.00,WSW,248,0.0,0.0,50,0.00,,,0.00,WUHU216HW,2013-03-31 05:25:00,
2013-03-30 23:30:00,46.4,28.9,0.00,WSW,248,0.0,0.0,50,0.00,,,0.00,WUHU216HW,2013-03-31 05:30:00,
2013-03-30 23:35:00,46.2,29.0,0.00,WSW,248,0.0,0.0,51,0.00,,,0.00,WUHU216HW,2013-03-31 05:35:00,
2013-03-30 23:40:00,46.0,28.8,0.00,WSW,248,0.0,0.0,51,0.00,,,0.00,WUHU216HW,2013-03-31 05:40:00,
2013-03-30 23:45:00,45.6,28.5,0.00,WSW,248,0.0,0.0,51,0.00,,,0.00,WUHU216HW,2013-03-31 05:45:00,
2013-03-30 23:50:00,45.6,28.5,0.00,WSW,248,0.0,0.0,51,0.00,,,0.00,WUHU216HW,2013-03-31 05:50:00,
2013-03-30 23:55:00,45.3,28.2,0.00,WSW,248,0.0,0.0,51,0.00,,,0.00,WUHU216HW,2013-03-31 05:55:00,